Regional Weather Roundup
Issued by NWS

Home | Current Version | Previous Version | Graphics & Text | Print | Product List | Glossary On
Versions: 1 2 3 4 5 6 7 8 9 10 11 12 13 14 15 16 17 18 19 20 21 22 23 24 25 26 27 28 29 30 31 32 33 34 35 36 37 38 39 40 41 42 43 44 45 46 47 48 49 50
000
ASUS43 KLMK 221802
RWRKY
KENTUCKY REGIONAL WEATHER ROUNDUP
NATIONAL WEATHER SERVICE LOUISVILLE KY
200 PM EDT FRI MAY 22 2015

NOTE "FAIR" INDICATES FEW OR NO CLOUDS BELOW 12,000 FEET
WITH NO SIGNIFICANT WEATHER AND/OR OBSTRUCTIONS TO VISIBILITY.

KYZ001>023-026-027-061>063-070>075-221900-
WESTERN AND SOUTH CENTRAL KENTUCKY

CITY           SKY/WX    TMP DP  RH WIND       PRES   REMARKS
PADUCAH        SUNNY     72  45  37 N5        30.27F
HENDERSON      SUNNY     72  48  43 SW9       30.26S
OWENSBORO      SUNNY     72  49  44 SW8       30.28R
HOPKINSVILLE   MOSUNNY   68  47  47 N1        30.28F
BOWLING GREEN  SUNNY     69  42  37 NE3       30.29F
GLASGOW        NOT AVBL
$$

KYZ024-025-028>034-038-045-046-053-221900-
NORTH CENTRAL KENTUCKY

CITY           SKY/WX    TMP DP  RH WIND       PRES   REMARKS
LOUISVILLE/SDF MOSUNNY   71  43  36 S9G17     30.25S
LOUISVILLE/LOU SUNNY     72  43  35 W9G18     30.25F
FORT KNOX      SUNNY     70  45  40 S8        30.25F
$$

KYZ035>037-039>044-047>052-055>060-089>105-221900-
NORTHEAST KENTUCKY

CITY           SKY/WX    TMP DP  RH WIND       PRES   REMARKS
LEXINGTON      SUNNY     69  43  38 SW8       30.26F
COVINGTON      MOSUNNY   71  47  42 SW12G18   30.22S
FRANKFORT      SUNNY     71  42  35 S10       30.25F
$$

KYZ054-064>069-076>088-106>120-221900-
SOUTHEAST KENTUCKY

CITY           SKY/WX    TMP DP  RH WIND       PRES   REMARKS
JACKSON        MOSUNNY   63  45  51 CALM      30.28F
LONDON         SUNNY     68  39  34 NW6       30.28F
SOMERSET       NOT AVBL
MIDDLESBORO    SUNNY     66  46  49 NE6       30.28F
MONTICELLO     CLEAR     68  45  43 VRB5      30.31F
$$




USA.gov is the U.S. government's official web portal to all federal, state and local government web resources and services.